sat.trackr.live / text

‹ back to catalog

SDA_1674

NORAD 65984 · 2025-230L

PAYLOAD ACTIVE UNKNOWN

§ Identity

Operator
Country
US
Launch date
2025-10-15
Launch site
AFWTR
Launch vehicle
Mass (kg)
RCS (m²)

External: N2YO · Heavens-Above · Gunter

§ Orbital elements

Epoch: 2026-09-20T22:05:30.932160Z

Period
104.19 min
Inclination
81.2983°
Eccentricity
0.0001448
Mean motion
13.82090171 rev/d
Perigee alt
955.4 km
Apogee alt
957.5 km
Semi-major
7,334.6 km
B*
9.5930e-5
RAAN
123.3786°
Arg perigee
24.1032°
Mean anomaly
336.0191°
Rev number
4,703

§ Raw data

SDA_16741 65984U 25230L   26263.92049690  .00000115  00000+0  95930-4 0  99982 65984  81.2983 123.3786 0001448  24.1032 336.0191 13.82090171 47033

JSON: /api/v1/satellites/65984 · /tle

For live sub-satellite position, see the globe view (requires WebGL).

§ Visibility from observer

Set your observer location to see the next 7 days of passes ≥ 10°. The values pass through the URL so the page stays shareable.

No JS? Fill the form by hand. The geolocation button needs JavaScript.